Regional Weather Roundup
Issued by NWS

Home | Current Version | Previous Version | Text Only | Print | Product List | Glossary Off
Versions: 1 2 3 4 5 6 7 8 9 10 11 12 13 14 15 16 17 18 19 20 21 22 23 24 25 26 27 28 29 30 31 32 33 34 35 36 37 38 39 40 41 42 43 44 45 46 47 48 49 50

000
ASUS43 KMKX 280621
RWRWI

WISCONSIN REGIONAL WEATHER ROUNDUP
NATIONAL WEATHER SERVICE MILWAUKEE/SULLIVAN WI
100 AM CDT TUE APR 28 2015

NOTE: "FAIR" INDICATES FEW OR NO CLOUDS BELOW 12,000 FEET WITH NO
SIGNIFICANT WEATHER AND/OR OBSTRUCTIONS TO VISIBILITY.

WIZ001-002-006>008-014>016-023>028-280700-
NORTHWEST WISCONSIN

CITY           SKY/WX    TMP DP  RH WIND       PRES   REMARKS
SUPERIOR ARPT  PTCLDY    32  30  93 CALM      30.16S
6HR MIN TEMP:  32; 6HR MAX TEMP:  46;

ASHLAND        CLEAR     33  29  85 CALM      30.16S
6HR MIN TEMP:  33; 6HR MAX TEMP:  53;

HAYWARD        CLEAR     36  29  75 CALM      30.15S
6HR MIN TEMP:  36; 6HR MAX TEMP:  65;

SIREN          PTCLDY    38  28  67 CALM      30.15R
6HR MIN TEMP:  38; 6HR MAX TEMP:  67;

CUMBERLAND     CLEAR     41  32  70 CALM      30.15S
RICE LAKE      CLEAR     38  35  87 CALM      30.17R
6HR MIN TEMP:  38; 6HR MAX TEMP:  64;

CHETEK         CLEAR     40  32  73 CALM      30.16R
6HR MIN TEMP:  40; 6HR MAX TEMP:  64;

LADYSMITH      CLEAR     38  30  74 CALM      30.17S
6HR MIN TEMP:  38; 6HR MAX TEMP:  64;

EAU CLAIRE     CLEAR     44  30  57 CALM      30.14S
6HR MIN TEMP:  41; 6HR MAX TEMP:  68;

MENOMONIE      CLEAR     47  32  56 CALM      30.15S
6HR MIN TEMP:  46; 6HR MAX TEMP:  67;

NEW RICHMOND   CLEAR     41  32  72 E3        30.16R
6HR MIN TEMP:  40; 6HR MAX TEMP:  66;

OSCEOLA        CLEAR     42  32  69 E9        30.17R
6HR MIN TEMP:  40; 6HR MAX TEMP:  67;

$$

WIZ003>005-009-010-017-018-280700-
NORTH CENTRAL WISCONSIN

CITY           SKY/WX    TMP DP  RH WIND       PRES   REMARKS
MANITOWISH WTR CLEAR     32  32 100 CALM      30.16R
6HR MIN TEMP:  32; 6HR MAX TEMP:  55;

ARBOR VITAE    CLEAR     37  30  78 CALM      30.15S
6HR MIN TEMP:  36; 6HR MAX TEMP:  57;

WOODRUFF       CLEAR     37  30  78 CALM      30.15S
6HR MIN TEMP:  36; 6HR MAX TEMP:  57;

RHINELANDER    CLEAR     42  25  50 NE3       30.16S
6HR MIN TEMP:  38; 6HR MAX TEMP:  58;

EAGLE RIVER    CLEAR     31  27  84 CALM      30.15S
6HR MIN TEMP:  31; 6HR MAX TEMP:  55;

LAND O LAKES   CLEAR     30  28  92 CALM      30.16F
6HR MIN TEMP:  30; 6HR MAX TEMP:  55;

PHILLIPS       PTCLDY    34  30  87 CALM      30.15R
6HR MIN TEMP:  34; 6HR MAX TEMP:  59;

TOMAHAWK       CLEAR     30  26  85 CALM      30.16S
6HR MIN TEMP:  30; 6HR MAX TEMP:  59;

MEDFORD        CLEAR     41  28  59 NE3       30.15R
6HR MIN TEMP:  40; 6HR MAX TEMP:  61;

MERRILL        CLEAR     35  28  75 CALM      30.17R
6HR MIN TEMP:  35; 6HR MAX TEMP:  62;

$$

WIZ029-030-035-036-043>047-280700-
CENTRAL WISCONSIN

CITY           SKY/WX    TMP DP  RH WIND       PRES   REMARKS
WAUSAU         CLEAR     44  33  65 E5        30.15R
6HR MIN TEMP:  43; 6HR MAX TEMP:  64;

MOSINEE        CLEAR     41  34  75 E5        30.16S
MARSHFIELD     CLEAR     48  28  46 NE6       30.14R
6HR MIN TEMP:  48; 6HR MAX TEMP:  65;

STEVENS POINT  CLEAR     40  33  75 E5        30.16S
6HR MIN TEMP:  40; 6HR MAX TEMP:  63;

WAUPACA        CLEAR     40  34  80 CALM      30.17S
6HR MIN TEMP:  40; 6HR MAX TEMP:  67;

WAUTOMA        CLEAR     40  34  79 CALM      30.17R
6HR MIN TEMP:  39; 6HR MAX TEMP:  67;

WISC RAPIDS    CLEAR     44  34  67 SE9       30.16R
6HR MIN TEMP:  44; 6HR MAX TEMP:  66;

CAMP DOUGLAS   CLEAR     42  33  70 E6        30.13R
6HR MIN TEMP:  38; 6HR MAX TEMP:  66;

$$

WIZ011>013-019>022-031-037>040-048>050-280700-
NORTHEAST WISCONSIN

CITY           SKY/WX    TMP DP  RH WIND       PRES   REMARKS
ANTIGO         CLEAR     38  32  79 SE6       30.16S WCI  33
SHAWANO        CLEAR     42  35  76 E3        30.18R
6HR MIN TEMP:  41; 6HR MAX TEMP:  60;

OCONTO         CLEAR     33  32  97 CALM      30.17S
6HR MIN TEMP:  33; 6HR MAX TEMP:  51;

STURGEON BAY   CLEAR     37  32  81 N5        30.18S WCI  34
6HR MIN TEMP:  37; 6HR MAX TEMP:  46;

GREEN BAY      CLEAR     39  34  82 N5        30.17R
6HR MIN TEMP:  38; 6HR MAX TEMP:  55;

MANITOWOC      CLEAR     40  33  76 N6        30.16S
6HR MIN TEMP:  38; 6HR MAX TEMP:  47;

APPLETON       CLEAR     36  32  87 N3        30.17S
CLINTONVILLE   CLEAR     37  32  81 CALM      30.18R
OSHKOSH        CLEAR     41  32  70 NE3       30.15S
6HR MIN TEMP:  40; 6HR MAX TEMP:  57;

$$

WIZ032>034-041-042-053>061-280700-
SOUTHWEST WISCONSIN

CITY           SKY/WX    TMP DP  RH WIND       PRES   REMARKS
LA CROSSE      CLEAR     50  40  68 NW7       30.13R
6HR MIN TEMP:  46; 6HR MAX TEMP:  68;

SPARTA         CLEAR     35  30  82 CALM      30.14S
6HR MIN TEMP:  34; 6HR MAX TEMP:  66;

VIROQUA        CLEAR     50  31  48 NE6       30.12S
6HR MIN TEMP:  50; 6HR MAX TEMP:  63;

BOSCOBEL       CLEAR     43  35  73 CALM      30.12R
6HR MIN TEMP:  41; 6HR MAX TEMP:  67;

PRAIRIE DU CHI CLEAR     42  35  74 CALM      30.12S
6HR MIN TEMP:  42; 6HR MAX TEMP:  64;

PLATTEVILLE    CLEAR     47  34  59 W5        30.10S
6HR MIN TEMP:  47; 6HR MAX TEMP:  64;

$$

WIZ056-057-062-063-064-067-068-280700-
SOUTH CENTRAL WISCONSIN

CITY           SKY/WX    TMP DP  RH WIND       PRES   REMARKS
REEDSBURG      CLEAR     46  37  71 E8        30.13R
6HR MIN TEMP:  44; 6HR MAX TEMP:  64;

BARABOO/DELLS  CLEAR     43  36  75 E8        30.14R
6HR MIN TEMP:  43; 6HR MAX TEMP:  64;

LONE ROCK      CLEAR     39  34  82 E5        30.12R
6HR MIN TEMP:  39; 6HR MAX TEMP:  67;

MINERAL POINT  CLEAR     46  32  57 NE7       30.11R
MADISON        CLEAR     43  33  68 SE5       30.15R
6HR MIN TEMP:  42; 6HR MAX TEMP:  64;

MIDDLETON      CLEAR     45  33  64 SE6       30.15R
6HR MIN TEMP:  45; 6HR MAX TEMP:  65;

WATERTOWN      CLEAR     37  34  86 W3        30.14S
6HR MIN TEMP:  37; 6HR MAX TEMP:  56;

MONROE         CLEAR     43  36  75 E7        30.13R
JANESVILLE     CLEAR     39  34  81 NE5       30.13S
$$

WIZ051-052-058>065-066-070>072-280700-
SOUTHEAST WISCONSIN

CITY           SKY/WX    TMP DP  RH WIND       PRES   REMARKS
MILWAUKEE      CLEAR     43  31  62 N9        30.14R
6HR MIN TEMP:  41; 6HR MAX TEMP:  46;

WAUKESHA       CLEAR     37  32  81 N3        30.14F
MILWAUKEE/TIMM CLEAR     37  30  75 N3        30.14S
RACINE         CLEAR     42  32  67 N10       30.14R
6HR MIN TEMP:  39; 6HR MAX TEMP:  46;

BURLINGTON     CLEAR     33  31  92 CALM      30.13S
6HR MIN TEMP:  33; 6HR MAX TEMP:  49;

KENOSHA        CLEAR     40  32  73 N6        30.12S
6HR MIN TEMP:  36; 6HR MAX TEMP:  48;

FOND DU LAC    CLEAR     40  30  67 NE3       30.15R
6HR MIN TEMP:  37; 6HR MAX TEMP:  57;

SHEBOYGAN      CLEAR     35  30  82 NW7       30.15R WCI  29
6HR MIN TEMP:  34; 6HR MAX TEMP:  47;

WEST BEND      CLEAR     34  32  93 CALM      30.15R
JUNEAU         CLEAR     40  32  71 NE5       30.15S
6HR MIN TEMP:  38; 6HR MAX TEMP:  56;

$$

LSZ147-162-280700-
LAKE SUPERIOR

STATION/POSITION TIME  TEMP    WIND        PRES    WAVE
                       AIR SEA DIR/SP/G            HT/PER
                 (UTC) (F)     (DEG/KT/KT) (MB)    (FT/S)
W MID LAKE BUOY  0550   37 32   40/  4/  4 1022.6S   0
DEVILS ISLAND    0600   38      60/  4/  4 1022.1S
PORT WING        0540   35     180/  3/  4 1021.3S
SAXON HARBOR     0500   35        CALM     1020.7
$$

LMZ867-665-643>646-280700-
LAKE MICHIGAN

STATION/POSITION TIME  TEMP    WIND        PRES    WAVE


USA.gov is the U.S. government's official web portal to all federal, state and local government web resources and services.